GW1821 Weather Reports


Display with metric or nautical units.
time (UTC)temp
F
wind
direction
speed
MPH
gust
MPH
rain 1hr
in
rain 24hr
in
rain mn
in
humidity
%
barometer
mb
20260506120405 32 269 1.0 6.0 0.00 0.00 0.00 75 1012.8
20260506115855 32 271 1.0 6.0 0.00 0.00 0.00 75 1012.8
20260506115352 32 257 1.0 4.0 0.00 0.00 0.00 75 1012.8
20260506114846 32 257 1.0 4.0 0.00 0.00 0.00 75 1012.7
20260506114329 32 250 1.0 3.0 0.00 0.00 0.00 75 1012.6
20260506113826 32 251 1.0 3.0 0.00 0.00 0.00 75 1012.5
20260506113329 32 251 1.0 5.0 0.00 0.00 0.00 76 1012.5
20260506112825 32 251 1.0 5.0 0.00 0.00 0.00 75 1012.5
20260506112316 32 251 1.0 5.0 0.00 0.00 0.00 75 1012.5
20260506111816 31 251 2.0 5.0 0.00 0.00 0.00 75 1012.6
20260506111309 32 250 2.0 6.0 0.00 0.00 0.00 75 1012.6
20260506110803 32 250 2.0 6.0 0.00 0.00 0.00 75 1012.6
20260506110302 32 252 1.0 4.0 0.00 0.00 0.00 75 1012.6
20260506105750 32 249 1.0 4.0 0.00 0.00 0.00 75 1012.5
20260506105242 32 247 1.0 4.0 0.00 0.00 0.00 75 1012.5
20260506105006 32 248 1.0 4.0 0.00 0.00 0.00 75 1012.4
20260506104501 32 248 1.0 3.0 0.00 0.00 0.00 75 1012.2
20260506103737 32 248 1.0 3.0 0.00 0.00 0.00 74 1012.1
20260506103237 32 248 1.0 3.0 0.00 0.00 0.00 74 1012.0
20260506102738 32 248 1.0 3.0 0.00 0.00 0.00 74 1012.0
20260506102239 33 248 0.0 2.0 0.00 0.00 0.00 73 1012.0
20260506101737 33 248 0.0 2.0 0.00 0.00 0.00 74 1011.9
20260506101459 33 248 0.0 2.0 0.00 0.00 0.00 73 1011.9
20260506100944 33 248 0.0 2.0 0.00 0.00 0.00 74 1012.0
20260506100211 33 248 1.0 3.0 0.00 0.00 0.00 74 1012.0
20260506095649 33 248 1.0 3.0 0.00 0.00 0.00 74 1012.0
20260506095146 33 248 1.0 4.0 0.00 0.00 0.00 74 1012.0
20260506094645 33 247 1.0 4.0 0.00 0.00 0.00 74 1012.1
20260506094144 33 296 1.0 3.0 0.00 0.00 0.00 74 1012.2
20260506093645 33 296 0.0 3.0 0.00 0.00 0.00 74 1012.1
20260506093137 33 296 0.0 3.0 0.00 0.00 0.00 74 1012.1
20260506092618 33 298 0.0 2.0 0.00 0.00 0.00 74 1012.1
20260506092109 33 298 0.0 1.0 0.00 0.00 0.00 73 1012.1
20260506091604 33 297 0.0 1.0 0.00 0.00 0.00 73 1012.0
20260506091102 33 297 0.0 1.0 0.00 0.00 0.00 73 1012.0
20260506090557 33 298 0.0 2.0 0.00 0.00 0.00 73 1011.8
20260506090049 33 298 0.0 2.0 0.00 0.00 0.00 72 1011.8
20260506085541 33 298 0.0 2.0 0.00 0.00 0.00 72 1011.8
20260506085037 33 298 1.0 2.0 0.00 0.00 0.00 72 1011.6
20260506084736 33 315 1.0 3.0 0.00 0.00 0.00 72 1011.6
20260506084011 33 314 1.0 2.0 0.00 0.00 0.00 72 1011.7
20260506083508 33 315 0.0 2.0 0.00 0.00 0.00 72 1011.7
20260506083233 33 315 0.0 2.0 0.00 0.00 0.00 73 1011.7
20260506082458 33 315 1.0 2.0 0.00 0.00 0.00 73 1011.7
20260506081934 33 315 0.0 2.0 0.00 0.00 0.00 73 1011.8
20260506081434 33 315 0.0 1.0 0.00 0.00 0.00 73 1011.8
20260506080913 33 315 0.0 1.0 0.00 0.00 0.00 73 1011.7
20260506080354 33 315 0.0 1.0 0.00 0.00 0.00 73 1011.7
20260506073321 31 315 0.0 0.0 0.00 0.00 0.00 75 1011.5
20260506072816 31 315 0.0 0.0 0.00 0.00 0.00 75 1011.5
20260506072313 32 315 0.0 0.0 0.00 0.00 0.00 75 1011.5
20260506071807 32 315 0.0 0.0 0.00 0.00 0.00 75 1011.5
20260506071511 32 315 0.0 0.0 0.00 0.00 0.00 74 1011.6
20260506071011 32 315 0.0 0.0 0.00 0.00 0.00 73 1011.6
20260506070239 32 315 0.0 0.0 0.00 0.00 0.00 73 1011.6
20260506062058 35 315 0.0 0.0 0.00 0.00 0.00 68 1011.7
20260506061540 35 315 0.0 0.0 0.00 0.00 0.00 67 1011.7
20260506061026 35 315 0.0 1.0 0.00 0.00 0.00 67 1011.7
20260506060750 35 315 0.0 1.0 0.00 0.00 0.00 66 1011.6
20260506051147 37 317 2.0 4.0 0.00 0.00 0.00 63 1011.0
20260506050419 38 314 2.0 5.0 0.00 0.00 0.00 63 1011.0
20260506044914 38 316 2.0 9.0 0.00 0.00 0.00 62 1010.9
20260506044414 38 315 2.0 9.0 0.00 0.00 0.00 62 1011.0
20260506043908 38 319 2.0 8.0 0.00 0.00 0.00 62 1011.0
20260506043401 39 320 2.0 8.0 0.00 0.00 0.00 62 1010.9
20260506042900 39 306 2.0 5.0 0.00 0.00 0.00 61 1010.9
20260506042353 39 301 2.0 4.0 0.00 0.00 0.00 61 1010.9
20260506041840 39 306 1.0 4.0 0.00 0.00 0.00 61 1010.9
20260506041342 40 290 1.0 4.0 0.00 0.00 0.00 60 1010.9
20260506040839 40 310 2.0 4.0 0.00 0.00 0.00 60 1010.8
20260506040335 40 310 2.0 5.0 0.00 0.00 0.00 59 1010.7
20260506035834 40 311 2.0 5.0 0.00 0.00 0.00 59 1010.7
20260506035329 40 298 2.0 5.0 0.00 0.00 0.00 58 1010.7
20260506035048 40 302 2.0 5.0 0.00 0.00 0.00 58 1010.7
20260506034327 40 307 2.0 7.0 0.00 0.00 0.00 58 1010.6
20260506033825 41 312 2.0 7.0 0.00 0.00 0.00 58 1010.5
20260506033321 41 302 2.0 6.0 0.00 0.00 0.00 57 1010.4
20260506032815 41 316 3.0 8.0 0.00 0.00 0.00 57 1010.4
20260506032534 41 308 3.0 8.0 0.00 0.00 0.00 57 1010.4
20260506031811 41 313 3.0 8.0 0.00 0.00 0.00 58 1010.4
20260506031300 41 323 3.0 11.0 0.00 0.00 0.00 58 1010.3
20260506030755 41 302 3.0 11.0 0.00 0.00 0.00 57 1010.3
20260506030257 42 325 3.0 9.0 0.00 0.00 0.00 57 1010.3
20260506025750 42 328 3.0 9.0 0.00 0.00 0.00 57 1010.3
20260506025516 42 327 3.0 8.0 0.00 0.00 0.00 56 1010.3
20260506024745 42 309 4.0 11.0 0.00 0.00 0.00 56 1010.3
20260506024508 42 317 3.0 11.0 0.00 0.00 0.00 56 1010.2
20260506023740 42 305 3.0 11.0 0.00 0.00 0.00 55 1010.2
20260506023720 42 306 4.0 11.0 0.00 0.00 0.00 56 1010.1
20260506022739 42 303 4.0 10.0 0.00 0.00 0.00 55 1010.0
20260506022459 42 328 3.0 10.0 0.00 0.00 0.00 56 1010.0
20260506021740 43 328 3.0 9.0 0.00 0.00 0.00 56 1009.9
20260506021241 43 327 3.0 8.0 0.00 0.00 0.00 55 1009.9
20260506020740 43 319 3.0 7.0 0.00 0.00 0.00 55 1009.8
20260506020240 43 309 3.0 10.0 0.00 0.00 0.00 55 1009.7
20260506015741 44 273 3.0 10.0 0.00 0.00 0.00 54 1009.6
20260506015237 44 307 3.0 8.0 0.00 0.00 0.00 54 1009.5
20260506014956 44 301 3.0 10.0 0.00 0.00 0.00 54 1009.4
20260506014458 44 324 4.0 14.0 0.00 0.00 0.00 53 1009.4
20260506013733 44 329 5.0 14.0 0.00 0.00 0.00 53 1009.3
20260506013453 45 327 5.0 13.0 0.00 0.00 0.00 52 1009.3
20260506013224 45 304 5.0 13.0 0.00 0.00 0.00 52 1009.2
20260506012228 45 315 4.0 12.0 0.00 0.00 0.00 52 1009.1
20260506011729 45 317 4.0 11.0 0.00 0.00 0.00 52 1009.1
20260506011228 46 306 4.0 11.0 0.00 0.00 0.00 51 1009.0
20260506010728 46 330 4.0 11.0 0.00 0.00 0.00 51 1009.0
20260506010227 46 355 4.0 11.0 0.00 0.00 0.00 50 1008.9
20260506005726 46 344 4.0 11.0 0.00 0.00 0.00 50 1008.9
20260506005229 47 296 3.0 12.0 0.00 0.00 0.00 50 1008.8
20260506004948 47 285 4.0 12.0 0.00 0.00 0.00 48 1008.8
20260506004228 47 325 5.0 13.0 0.00 0.00 0.00 48 1008.7
20260506003955 48 313 5.0 13.0 0.00 0.00 0.00 47 1008.6
20260506003225 48 313 5.0 13.0 0.00 0.00 0.00 48 1008.5
20260506002945 48 288 5.0 13.0 0.00 0.00 0.00 48 1008.5
20260506002221 48 309 4.0 11.0 0.00 0.00 0.00 47 1008.4
20260506001717 48 322 4.0 15.0 0.00 0.00 0.00 47 1008.3
20260506001213 49 314 5.0 15.0 0.00 0.00 0.00 46 1008.3
20260506000710 49 303 6.0 15.0 0.00 0.00 0.00 47 1008.3
20260506000431 49 330 6.0 15.0 0.00 0.00 0.00 47 1008.2
20260505235650 50 281 5.0 14.0 0.00 0.00 0.00 45 1008.2
20260505235148 50 333 4.0 10.0 0.00 0.00 0.00 46 1008.1
20260505234646 50 286 5.0 12.0 0.00 0.00 0.00 44 1008.1
20260505234125 50 286 5.0 12.0 0.00 0.00 0.00 44 1008.0
20260505233616 50 304 5.0 13.0 0.00 0.00 0.00 45 1008.0
20260505233111 50 294 5.0 13.0 0.00 0.00 0.00 45 1007.9
20260505232610 51 292 4.0 10.0 0.00 0.00 0.00 45 1007.9
20260505232109 50 285 4.0 10.0 0.00 0.00 0.00 45 1007.9
20260505231605 49 294 3.0 10.0 0.00 0.00 0.00 46 1007.9
20260505231104 49 260 3.0 10.0 0.00 0.00 0.00 47 1007.9
20260505230604 49 322 4.0 13.0 0.00 0.00 0.00 46 1007.9
20260505230104 49 301 5.0 13.0 0.00 0.00 0.00 45 1007.9
20260505225603 49 289 5.0 13.0 0.00 0.00 0.00 45 1007.9
20260505225101 50 313 5.0 13.0 0.00 0.00 0.00 43 1007.9
20260505224557 51 293 5.0 13.0 0.00 0.00 0.00 43 1007.9
20260505224057 51 312 4.0 12.0 0.00 0.00 0.00 44 1007.7
20260505223558 50 311 4.0 13.0 0.00 0.00 0.00 47 1007.8
20260505223319 49 312 5.0 13.0 0.00 0.00 0.00 45 1007.8
20260505222549 49 343 4.0 13.0 0.00 0.00 0.00 45 1007.8
20260505222050 49 281 3.0 9.0 0.00 0.00 0.00 45 1007.8
20260505221538 49 225 4.0 12.0 0.00 0.00 0.00 45 1007.8
20260505221037 49 302 4.0 12.0 0.00 0.00 0.00 44 1007.8
20260505220536 49 289 4.0 10.0 0.00 0.00 0.00 45 1007.8
20260505220303 49 307 3.0 10.0 0.00 0.00 0.00 45 1007.9
20260505215526 49 254 3.0 10.0 0.00 0.00 0.00 45 1007.8
20260505215026 49 292 5.0 14.0 0.00 0.00 0.00 44 1007.9
20260505214748 50 328 6.0 16.0 0.00 0.00 0.00 45 1008.0
20260505214239 50 256 6.0 16.0 0.00 0.00 0.00 43 1007.9
20260505213518 51 236 5.0 14.0 0.00 0.00 0.00 44 1007.9
20260505213018 50 259 4.0 11.0 0.00 0.00 0.00 45 1008.0
20260505212738 50 257 4.0 12.0 0.00 0.00 0.00 45 1008.0
20260505212019 50 5 4.0 12.0 0.00 0.00 0.00 45 1007.9
20260505211514 50 302 5.0 13.0 0.00 0.00 0.00 44 1008.0
20260505211008 50 311 5.0 13.0 0.00 0.00 0.00 43 1008.1
20260505210506 50 332 5.0 10.0 0.00 0.00 0.00 45 1008.1
20260505210002 49 288 4.0 10.0 0.00 0.00 0.00 45 1008.1
20260505205503 50 346 5.0 15.0 0.00 0.00 0.00 44 1008.2
20260505205219 51 283 4.0 15.0 0.00 0.00 0.00 44 1008.1
20260505204504 50 296 4.0 14.0 0.00 0.00 0.00 47 1008.1
20260505204003 49 300 4.0 12.0 0.00 0.00 0.00 46 1008.0
20260505203459 49 313 4.0 12.0 0.00 0.00 0.00 45 1008.1
20260505203000 49 274 4.0 12.0 0.00 0.00 0.00 46 1008.2
20260505202453 49 248 4.0 12.0 0.00 0.00 0.00 46 1008.2
20260505201953 49 308 4.0 12.0 0.00 0.00 0.00 46 1008.3
20260505201453 49 315 4.0 12.0 0.00 0.00 0.00 45 1008.3
20260505200946 49 290 5.0 13.0 0.00 0.00 0.00 46 1008.2
20260505200707 49 255 5.0 11.0 0.00 0.00 0.00 45 1008.3
20260505195942 50 282 5.0 14.0 0.00 0.00 0.00 45 1008.3
20260505195438 50 319 5.0 14.0 0.00 0.00 0.00 46 1008.2
20260505195207 50 320 6.0 14.0 0.00 0.00 0.00 46 1008.3
20260505194434 49 321 6.0 14.0 0.00 0.00 0.00 48 1008.2
20260505193934 49 311 5.0 14.0 0.00 0.00 0.00 46 1008.2
20260505193434 49 9 5.0 14.0 0.00 0.00 0.00 46 1008.2
20260505192932 49 294 5.0 13.0 0.00 0.00 0.00 48 1008.2
20260505192432 49 288 4.0 13.0 0.00 0.00 0.00 46 1008.3
20260505191929 49 350 5.0 15.0 0.00 0.00 0.00 46 1008.2
20260505191428 50 291 4.0 15.0 0.00 0.00 0.00 45 1008.3
20260505190925 50 261 4.0 11.0 0.00 0.00 0.00 46 1008.2
20260505190424 50 281 5.0 13.0 0.00 0.00 0.00 45 1008.3
20260505185921 50 258 5.0 13.0 0.00 0.00 0.00 45 1008.3
20260505185424 49 294 5.0 11.0 0.00 0.00 0.00 45 1008.4
20260505185149 49 304 5.0 11.0 0.00 0.00 0.00 45 1008.3
20260505184420 49 303 4.0 14.0 0.00 0.00 0.00 45 1008.3
20260505183919 49 296 4.0 14.0 0.00 0.00 0.00 45 1008.3
20260505183416 49 300 5.0 14.0 0.00 0.00 0.00 44 1008.3
20260505182911 49 284 5.0 14.0 0.00 0.00 0.00 46 1008.2
20260505182630 49 254 5.0 13.0 0.00 0.00 0.00 46 1008.2
20260505181907 49 139 5.0 13.0 0.00 0.00 0.00 44 1008.2
20260505181404 49 5 7.0 15.0 0.00 0.00 0.00 45 1008.3
20260505180951 49 183 6.0 19.0 0.00 0.00 0.00 46 1008.2
20260505175856 48 313 4.0 11.0 0.00 0.00 0.00 45 1008.2
20260505175357 48 233 4.0 10.0 0.00 0.00 0.00 46 1008.2
20260505174858 48 200 4.0 10.0 0.00 0.00 0.00 47 1008.2
20260505174356 47 327 4.0 12.0 0.00 0.00 0.00 47 1008.2
20260505173858 48 291 4.0 12.0 0.00 0.00 0.00 46 1008.3
20260505173357 48 350 4.0 14.0 0.00 0.00 0.00 45 1008.1
20260505172854 48 292 4.0 14.0 0.00 0.00 0.00 46 1008.3
20260505172354 47 296 5.0 11.0 0.00 0.00 0.00 47 1008.2
20260505171854 48 5 5.0 11.0 0.00 0.00 0.00 47 1008.3
20260505171351 48 277 5.0 13.0 0.00 0.00 0.00 45 1008.3
20260505170852 48 268 5.0 14.0 0.00 0.00 0.00 46 1008.3
20260505170344 48 269 6.0 15.0 0.00 0.00 0.00 48 1008.3
20260505165844 48 331 6.0 15.0 0.00 0.00 0.00 53 1008.2
20260505165343 48 246 4.0 10.0 0.00 0.00 0.00 48 1008.2
20260505164839 48 304 5.0 16.0 0.00 0.00 0.00 53 1008.2
20260505164336 47 12 6.0 16.0 0.00 0.00 0.00 47 1008.2
20260505163839 47 273 5.0 12.0 0.00 0.00 0.00 51 1008.2
20260505163333 47 304 5.0 12.0 0.00 0.00 0.00 49 1008.2
20260505163053 46 336 4.0 11.0 0.00 0.00 0.00 51 1008.2
20260505162329 46 278 5.0 12.0 0.00 0.00 0.00 51 1008.3
20260505161826 46 342 5.0 12.0 0.00 0.00 0.00 49 1008.2
20260505161327 47 302 4.0 12.0 0.00 0.00 0.00 50 1008.3
20260505160828 46 297 4.0 12.0 0.00 0.00 0.00 51 1008.2
20260505160329 46 285 4.0 16.0 0.00 0.00 0.00 50 1008.3
20260505153320 45 336 5.0 13.0 0.00 0.00 0.00 53 1008.4
20260505152817 45 287 5.0 13.0 0.00 0.00 0.00 52 1008.4
20260505152804 44 292 5.0 12.0 0.00 0.00 0.00 52 1008.4
20260505152033 45 252 5.0 12.0 0.00 0.00 0.00 52 1008.3
20260505151308 44 293 4.0 12.0 0.00 0.00 0.00 52 1008.2
20260505150807 44 196 4.0 12.0 0.00 0.00 0.00 52 1008.2
20260505150311 44 294 4.0 11.0 0.00 0.00 0.00 52 1008.2
20260505140242 42 298 4.0 11.0 0.00 0.00 0.00 55 1007.7
20260505130215 39 319 5.0 14.0 0.00 0.00 0.00 57 1007.1
20260505124932 38 346 4.0 12.0 0.00 0.00 0.00 58 1007.0
20260505124155 38 306 4.0 11.0 0.00 0.00 0.00 59 1006.9
20260505123655 38 5 4.0 11.0 0.00 0.00 0.00 61 1006.8
20260505123155 38 315 4.0 11.0 0.00 0.00 0.00 62 1006.7
20260505122916 38 333 4.0 11.0 0.00 0.00 0.00 62 1006.7
20260505122151 38 322 4.0 11.0 0.00 0.00 0.00 64 1006.7
20260505121650 37 301 3.0 10.0 0.00 0.00 0.00 65 1006.7
20260505121355 37 303 3.0 9.0 0.00 0.00 0.00 66 1006.7
20260505120632 37 314 2.0 7.0 0.00 0.00 0.00 67 1006.6